Regional Weather Roundup
Issued by NWS Midland/Odessa, TX

Skip options and go directly to product.
Home | Oldest Version | Previous Version | Current Version | All | Text Only | Save Text | Print | Product List | Glossary On

Skip product version selection by date and time.   
516
ASUS44 KMAF 262210
RWRMAF
MIDLAND AREA WEATHER ROUNDUP
NATIONAL WEATHER SERVICE MIDLAND TX
500 PM CDT THU MAR 26 2015

...IN SOUTHWEST TEXAS AND SOUTHEAST NEW MEXICO...

CITY           SKY/WX    TMP DP  RH WIND       PRES   REMARKS
ALPINE         SUNNY     57  32  39 E7        30.30F
ANDREWS        FAIR      62  20  20 N7        30.21F
ARTESIA        SUNNY     61  18  18 CALM      30.23F HAZE
BIG SPRING     SUNNY     66  16  14 N8        30.21F
CARLSBAD       SUNNY     62  20  19 SW6       30.21F
DRYDEN           N/A     68  34  28 N13       30.18F
FORT STOCKTON  SUNNY     61  31  32 NW13      30.23F
GUAD PASS      SUNNY     55  23  28 CALM      30.27F
HOBBS          SUNNY     61  16  17 VRB6      30.22F
MARFA          SUNNY     59  30  33 N9        30.25F
MIDLAND AIRPK  SUNNY     62  26  24 NW8       30.21F
MIDLAND INTL   SUNNY     62  25  24 N9        30.21F
ODESSA         SUNNY     62  23  22 N9        30.22F
PECOS          SUNNY     63  28  26 NW8       30.23F
PRESIDIO       FAIR      70  35  28 NW6       30.16F
SEMINOLE       SUNNY     62  17  17 W5        30.21F
SNYDER         SUNNY     62  23  23 NW9       30.19F
WINK           SUNNY     64  18  17 VRB5      30.21F
$$
...OTHER STATIONS IN TEXAS...

CITY           SKY/WX    TMP DP  RH WIND       PRES   REMARKS
ABILENE        SUNNY     64  25  22 N15G26    30.17F
AMARILLO       MOSUNNY   63  16  16 NW10      30.16F
AUSTIN         PTSUNNY   69  46  43 N21G26    30.05R
BROWNSVILLE    CLOUDY    67  61  81 N16       29.97R
CORPUS CHRISTI PTSUNNY   70  52  52 N30G37    29.99F
DALLAS FTW     MOSUNNY   66  32  28 N22       30.08F
DEL RIO        SUNNY     73  40  30 NW14G22   30.11F
EL PASO        SUNNY     66  25  21 VRB5      30.21F
HOUSTON INT    PTSUNNY   69  50  50 N16G28    29.97R
LUBBOCK        PTSUNNY   64  20  18 VRB5      30.18F
SAN ANGELO     SUNNY     67  26  21 N15G23    30.16F
SAN ANTONIO    PTSUNNY   71  43  36 N14G22    30.07F
WACO           SUNNY     67  35  30 N23       30.06F
WICHITA FALLS  NOT AVBL
$$
...OTHER LOCATIONS IN NEW MEXICO...

CITY           SKY/WX    TMP DP  RH WIND       PRES   REMARKS
ALAMAGORDO     SUNNY     64  25  22 W5        30.22F
ALBUQUERQUE    MOSUNNY   61  18  18 SW8       30.23F
CANNON AFB     SUNNY     60  17  19 NW9G18    30.19F
CLOVIS         SUNNY     61  19  20 W9G21     30.19F
HOLLOMAN AFB   MOSUNNY   66  20  17 W6        30.20F
ROSWELL        SUNNY     62  18  18 SW6       30.21F
RUIDOSO        SUNNY     57  18  21 NW12G17   30.26F
SANTA FE       SUNNY     58  13  17 MISG      30.23F
TRUTH OR CONSE SUNNY     65  15  14 CALM      30.20F
TUCUMCARI      SUNNY     64  14  14 W13G22    30.15F
$$

USA.gov is the U.S. government's official web portal to all federal, state and local government web resources and services.